NW Arkansas Airport, AR

3:14 PM CDT on April 26, 2018 (GMT -0500)
Northwest Arkansas Regional

Weather History for KXNA - May, 2013

Change the Weather History Date:

Monday, May 13, 2013

  Actual Average (KVBT) Record (KVBT)
Temperature  
Mean Temperature 62 °F -  
Max Temperature 78 °F 75 °F 87 °F (1956)
Min Temperature 45 °F 52 °F 36 °F (1960)
Degree Days  
Heating Degree Days 4    
Growing Degree Days 12 (Base 50)    
Moisture  
Dew Point 48 °F    
Average Humidity 64    
Maximum Humidity 90    
Minimum Humidity 39    
Precipitation  
Precipitation 0.00 in - - ()
Sea Level Pressure  
Sea Level Pressure 30.11 in    
Wind  
Wind Speed 5 mph (SSW)    
Max Wind Speed 20 mph    
Max Gust Speed 32 mph    
Visibility 10 miles    
Events      
Averages and records for this station are not official NWS values.
T = Trace of Precipitation, MM = Missing Value Source: NWS Daily Summary

Daily Weather History Graph

Daily Weather History Graph

Search for Another Location

Airport or City:

Astronomy

May. 13, 2013 Rise Set
Actual Time 6:12 AM CDT 8:15 PM CDT
Civil Twilight 5:43 AM CDT 8:43 PM CDT
Nautical Twilight 5:09 AM CDT 9:18 PM CDT
Astronomical Twilight 4:31 AM CDT 9:56 PM CDT
Moon 8:59 AM CDT (5/13) 11:25 PM CDT (5/13)
Length of Visible Light 15h 00m
Length of Day
14h 03m
Waxing Crescent, 12% of the Moon is Illuminated
May 13
Waxing Crescent
May 17
First Quarter
May 24
Full
May 31
Last Quarter
Jun 8
New

Hourly Weather History & Observations

Time (CDT) Temp. Dew Point Humidity Pressure Visibility Wind Dir Wind Speed Gust Speed Precip Events Conditions
12:53 AM 48.0 °F 44.1 °F 86% 30.17 in 10.0 mi Calm Calm - N/A   Partly Cloudy
1:53 AM 48.0 °F 43.0 °F 83% 30.16 in 10.0 mi South 3.5 mph - N/A   Partly Cloudy
2:53 AM 48.9 °F 44.1 °F 83% 30.15 in 10.0 mi Calm Calm - N/A   Mostly Cloudy
3:53 AM 46.9 °F 43.0 °F 86% 30.15 in 10.0 mi Calm Calm - N/A   Clear
4:53 AM 45.0 °F 42.1 °F 90% 30.16 in 10.0 mi Calm Calm - N/A   Mostly Cloudy
5:53 AM 48.0 °F 43.0 °F 83% 30.17 in 10.0 mi Calm Calm - N/A   Mostly Cloudy
6:53 AM 48.0 °F 43.0 °F 83% 30.17 in 10.0 mi Calm Calm - N/A   Mostly Cloudy
7:53 AM 53.1 °F 44.1 °F 71% 30.16 in 10.0 mi SE 6.9 mph - N/A   Clear
8:53 AM 60.1 °F 46.0 °F 60% 30.14 in 10.0 mi South 12.7 mph - N/A   Scattered Clouds
9:53 AM 66.0 °F 44.1 °F 45% 30.13 in 10.0 mi South 15.0 mph 32.2 mph N/A   Clear
10:53 AM 69.1 °F 43.0 °F 39% 30.13 in 10.0 mi SSW 15.0 mph 25.3 mph N/A   Clear
11:53 AM - - N/A% 30.14 in - North - - N/A   Unknown
12:53 PM 73.0 °F 48.0 °F 41% 30.10 in 10.0 mi SSW 19.6 mph 25.3 mph N/A   Clear
1:53 PM 75.0 °F 50.0 °F 41% 30.10 in 10.0 mi SSW 9.2 mph - N/A   Clear
3:53 PM 78.1 °F 52.0 °F 40% 30.07 in 10.0 mi WSW 12.7 mph - N/A   Clear
4:53 PM 78.1 °F 52.0 °F 40% 30.06 in 10.0 mi WSW 10.4 mph - N/A   Clear
5:53 PM 78.1 °F 54.0 °F 43% 30.05 in 10.0 mi West 8.1 mph - N/A   Clear
7:53 PM 73.0 °F 55.9 °F 55% 30.04 in 10.0 mi SSW 4.6 mph - N/A   Clear
8:53 PM 71.1 °F 55.0 °F 57% 30.04 in 10.0 mi South 4.6 mph - N/A   Clear
9:53 PM 66.9 °F 55.0 °F 66% 30.04 in 10.0 mi South 4.6 mph - N/A   Clear
10:53 PM 64.9 °F 55.0 °F 70% 30.05 in 10.0 mi SSW 5.8 mph - N/A   Clear
11:53 PM 63.0 °F 54.0 °F 72% 30.07 in 10.0 mi South 5.8 mph - N/A   Clear